Pineville, WV

10:16 PM EST on December 10, 2019 (GMT -0500)
Pineville

Weather History for KI16 - June, 2019

Change the Weather History Date:

Monday, June 3, 2019

  Actual Average (WUND) Record (WUND)
Temperature  
Mean Temperature 62 °F -  
Max Temperature 72 °F - - (-1)
Min Temperature 50 °F - - (-1)
Degree Days  
Heating Degree Days 4    
Growing Degree Days 12 (Base 50)    
Moisture  
Dew Point 52 °F    
Average Humidity 70    
Maximum Humidity 98    
Minimum Humidity 33    
Precipitation  
Precipitation 0.00 in - - ()
Sea Level Pressure  
Sea Level Pressure 30.12 in    
Wind  
Wind Speed - (North)    
Max Wind Speed -    
Max Gust Speed -    
Visibility 8 miles    
Events      
Averages and records for this station are not official NWS values.
T = Trace of Precipitation, MM = Missing Value Source: NWS Daily Summary

Daily Weather History Graph

Daily Weather History Graph

Search for Another Location

Airport or City:

Astronomy

Jun. 03, 2019 Rise Set
Actual Time 6:05 AM EDT 8:43 PM EDT
Civil Twilight 5:35 AM EDT 9:13 PM EDT
Nautical Twilight 4:57 AM EDT 9:52 PM EDT
Astronomical Twilight 4:14 AM EDT 10:35 PM EDT
Moon 6:24 AM EDT (6/3) 9:07 PM EDT (6/3)
Length of Visible Light 15h 38m
Length of Day
14h 37m
New Moon, 0% of the Moon is Illuminated
Jun 3
New Moon
Jun 10
First Quarter
Jun 17
Full
Jun 25
Last Quarter
Jul 2
New

Hourly Weather History & Observations

Time (EDT) Temp. Dew Point Humidity Pressure Visibility Wind Dir Wind Speed Gust Speed Precip Events Conditions
12:15 AM 63.0 °F 62.2 °F 97% 29.99 in 4.0 mi North - - N/A   Overcast
12:35 AM 63.3 °F 62.6 °F 97% 30.00 in 5.0 mi North - - N/A   Overcast
12:55 AM 63.0 °F 62.2 °F 97% 30.00 in 3.0 mi North - - N/A   Overcast
1:15 AM 63.1 °F 62.4 °F 97% 30.00 in 5.0 mi North - - N/A   Overcast
1:35 AM 63.0 °F 62.1 °F 97% 30.00 in 4.0 mi North - - N/A   Overcast
1:55 AM 63.0 °F 62.1 °F 97% 30.00 in 4.0 mi North - - N/A   Overcast
2:15 AM 62.8 °F 61.9 °F 97% 29.99 in 4.0 mi North - - N/A   Overcast
2:35 AM 62.8 °F 61.9 °F 97% 29.99 in 4.0 mi North - - N/A   Overcast
2:55 AM 62.6 °F 61.7 °F 97% 29.99 in 4.0 mi North - - N/A   Overcast
3:15 AM 62.8 °F 61.9 °F 97% 30.00 in 5.0 mi North - - N/A   Overcast
3:35 AM 62.6 °F 61.7 °F 97% 30.00 in 5.0 mi North - - N/A   Overcast
3:55 AM 62.6 °F 61.7 °F 97% 30.01 in 5.0 mi North - - N/A   Overcast
4:15 AM 61.9 °F 61.0 °F 97% 30.01 in 4.0 mi North - - N/A   Overcast
4:35 AM 61.9 °F 61.0 °F 97% 30.02 in 4.0 mi North - - N/A   Overcast
4:55 AM 61.3 °F 60.4 °F 97% 30.03 in 3.0 mi North - - N/A   Overcast
5:15 AM 60.8 °F 60.1 °F 97% 30.04 in 3.0 mi North - - N/A   Overcast
5:35 AM 60.8 °F 60.1 °F 97% 30.04 in 3.0 mi North - - N/A   Overcast
5:55 AM 60.4 °F 59.9 °F 98% 30.05 in 3.0 mi North - - N/A   Overcast
6:15 AM 60.1 °F 59.4 °F 97% 30.06 in 3.0 mi North - - N/A   Overcast
6:35 AM 59.4 °F 58.6 °F 97% 30.07 in 3.0 mi North - - N/A   Overcast
6:55 AM 59.2 °F 58.5 °F 97% 30.08 in 3.0 mi North - - N/A   Overcast
7:15 AM 59.9 °F 59.0 °F 97% 30.09 in 7.0 mi North - - N/A   Mostly Cloudy
7:35 AM 59.5 °F 58.5 °F 96% 30.11 in 10.0 mi North - - N/A   Mostly Cloudy
7:55 AM 59.9 °F 57.2 °F 91% 30.11 in 10.0 mi North - - N/A   Mostly Cloudy
8:15 AM 60.4 °F 57.2 °F 89% 30.12 in 10.0 mi North - - N/A   Scattered Clouds
8:35 AM 61.3 °F 56.8 °F 85% 30.12 in 10.0 mi North - - N/A   Scattered Clouds
8:55 AM 61.7 °F 55.8 °F 81% 30.14 in 10.0 mi North - - N/A   Mostly Cloudy
9:15 AM 61.7 °F 56.3 °F 82% 30.14 in 10.0 mi North - - N/A   Mostly Cloudy
9:35 AM 63.0 °F 54.3 °F 73% 30.13 in 10.0 mi North - - N/A   Mostly Cloudy
9:55 AM 64.0 °F 54.1 °F 70% 30.14 in 10.0 mi North - - N/A   Clear
10:15 AM 65.3 °F 53.1 °F 65% 30.15 in 10.0 mi North - - N/A   Clear
10:35 AM 64.6 °F 51.3 °F 62% 30.15 in 10.0 mi North - - N/A   Clear
10:55 AM 66.4 °F 47.1 °F 50% 30.16 in 10.0 mi North - - N/A   Clear
11:15 AM 66.4 °F 43.9 °F 44% 30.16 in 10.0 mi North - - N/A   Clear
11:35 AM 68.0 °F 42.4 °F 39% 30.17 in 10.0 mi North - - N/A   Clear
11:55 AM 68.5 °F 40.8 °F 36% 30.18 in 10.0 mi North - - N/A   Clear
12:15 PM 68.5 °F 41.0 °F 37% 30.18 in 10.0 mi North - - N/A   Clear
12:35 PM 68.7 °F 42.4 °F 39% 30.18 in 10.0 mi North - - N/A   Scattered Clouds
12:55 PM 70.3 °F 42.8 °F 37% 30.18 in 10.0 mi North - - N/A   Scattered Clouds
1:15 PM 69.8 °F 42.1 °F 37% 30.17 in 10.0 mi North - - N/A   Clear
1:35 PM 69.6 °F 40.6 °F 35% 30.17 in 10.0 mi North - - N/A   Clear
1:55 PM 69.1 °F 40.5 °F 35% 30.17 in 10.0 mi North - - N/A   Clear
2:15 PM 70.2 °F 39.6 °F 33% 30.16 in 10.0 mi North - - N/A   Clear
2:35 PM 70.9 °F 41.4 °F 34% 30.16 in 10.0 mi North - - N/A   Clear
2:55 PM 72.0 °F 44.4 °F 37% 30.16 in 10.0 mi North - - N/A   Clear
3:15 PM 71.1 °F 43.0 °F 36% 30.15 in 10.0 mi North - - N/A   Clear
3:35 PM 71.2 °F 40.6 °F 33% 30.15 in 10.0 mi North - - N/A   Clear
3:55 PM 72.3 °F 42.3 °F 34% 30.15 in 10.0 mi North - - N/A   Scattered Clouds
4:15 PM 72.1 °F 41.7 °F 33% 30.15 in 10.0 mi North - - N/A   Scattered Clouds
4:35 PM 72.5 °F 43.7 °F 36% 30.15 in 10.0 mi North - - N/A   Scattered Clouds
4:55 PM 71.6 °F 44.1 °F 37% 30.15 in 10.0 mi North - - N/A   Scattered Clouds
5:15 PM 71.4 °F 43.3 °F 36% 30.16 in 10.0 mi North - - N/A   Scattered Clouds
5:35 PM 71.1 °F 44.1 °F 38% 30.16 in 10.0 mi North - - N/A   Clear
5:55 PM 69.6 °F 43.3 °F 39% 30.16 in 10.0 mi North - - N/A   Clear
6:15 PM 69.3 °F 45.1 °F 42% 30.16 in 10.0 mi North - - N/A   Clear
6:35 PM 68.5 °F 42.8 °F 39% 30.16 in 10.0 mi North - - N/A   Scattered Clouds
6:55 PM 68.0 °F 44.2 °F 42% 30.16 in 10.0 mi North - - N/A   Scattered Clouds
7:15 PM 66.4 °F 46.4 °F 49% 30.17 in 10.0 mi North - - N/A   Clear
7:35 PM 64.9 °F 46.6 °F 51% 30.17 in 10.0 mi North - - N/A   Clear
7:55 PM 61.9 °F 49.6 °F 64% 30.17 in 10.0 mi North - - N/A   Clear
8:15 PM 60.3 °F 52.2 °F 75% 30.18 in 10.0 mi North - - N/A   Clear
8:35 PM 58.8 °F 50.5 °F 74% 30.18 in 10.0 mi North - - N/A   Clear
8:55 PM 57.6 °F 51.1 °F 79% 30.18 in 10.0 mi North - - N/A   Clear
9:15 PM 55.9 °F 50.9 °F 83% 30.18 in 10.0 mi North - - N/A   Clear
9:35 PM 54.9 °F 50.9 °F 86% 30.20 in 10.0 mi North - - N/A   Clear
9:55 PM 54.0 °F 50.5 °F 88% 30.20 in 10.0 mi North - - N/A   Clear
10:15 PM 53.1 °F 50.4 °F 91% 30.21 in 10.0 mi North - - N/A   Clear
10:35 PM 52.7 °F 50.0 °F 91% 30.22 in 10.0 mi North - - N/A   Clear
10:55 PM 52.0 °F 49.6 °F 92% 30.23 in 10.0 mi North - - N/A   Clear
11:15 PM 51.4 °F 49.3 °F 92% 30.23 in 10.0 mi North - - N/A   Clear
11:35 PM 51.1 °F 49.3 °F 94% 30.22 in 10.0 mi North - - N/A   Clear
11:55 PM 50.9 °F 49.1 °F 94% 30.23 in 10.0 mi North - - N/A   Clear